Langdon, ND

7:13 PM CDT on August 26, 2016 (GMT -0500)
Langdon

Weather History for KD55 - August, 2013

Change the Weather History Date:

Friday, August 23, 2013

  Actual Average (KDVL) Record (KDVL)
Temperature  
Mean Temperature 68 °F -  
Max Temperature 82 °F 77 °F 96 °F (1952)
Min Temperature 53 °F 53 °F 38 °F (1987)
Cooling Degree Days 2    
Growing Degree Days 18 (Base 50)    
Moisture  
Dew Point 60 °F    
Average Humidity 74    
Maximum Humidity 88    
Minimum Humidity 57    
Precipitation  
Precipitation 0.00 in - - ()
Sea Level Pressure  
Sea Level Pressure 30.00 in    
Wind  
Wind Speed 11 mph (SSE)    
Max Wind Speed 20 mph    
Max Gust Speed 25 mph    
Visibility 10 miles    
Events      
Averages and records for this station are not official NWS values.
T = Trace of Precipitation, MM = Missing Value Source: NWS Daily Summary

Daily Weather History Graph

Daily Weather History Graph

Search for Another Location

Airport or City:

Trip Planner

Search our weather history database for the weather conditions in past years. The results will help you decide how hot, cold, wet, or windy it might be!

Date:

Astronomy

Aug. 23, 2013 Rise Set
Actual Time 6:38 AM CDT 8:32 PM CDT
Civil Twilight 6:04 AM CDT 9:06 PM CDT
Nautical Twilight 5:22 AM CDT 9:47 PM CDT
Astronomical Twilight 4:36 AM CDT 10:33 PM CDT
Moon 9:30 PM CDT (8/23) 9:55 AM CDT (8/23)
Length of Visible Light 15h 02m
Length of Day
13h 54m
Waning Gibbous, 91% of the Moon is Illuminated
Aug 23
Waning Gibbous
Aug 28
Last Quarter
Sep 5
New
Sep 12
First Quarter
Sep 19
Full

Hourly Weather History & Observations

Time (CDT) Temp. Heat Index Dew Point Humidity Pressure Visibility Wind Dir Wind Speed Gust Speed Precip Events Conditions
12:15 AM 53.6 °F - 48.2 °F 82% 30.12 in 10.0 mi SSE 9.2 mph - N/A   Scattered Clouds
12:35 AM 53.6 °F - 48.2 °F 82% 30.12 in 10.0 mi SSE 8.1 mph - N/A   Partly Cloudy
12:55 AM 53.6 °F - 48.2 °F 82% 30.12 in 10.0 mi SSE 8.1 mph - N/A   Scattered Clouds
1:15 AM 55.4 °F - 48.2 °F 77% 30.11 in 10.0 mi South 8.1 mph - N/A   Scattered Clouds
1:35 AM 57.2 °F - 50.0 °F 77% 30.11 in 10.0 mi South 9.2 mph - N/A   Partly Cloudy
1:55 AM 55.4 °F - 50.0 °F 82% 30.11 in 10.0 mi South 10.4 mph - N/A   Partly Cloudy
2:15 AM 55.4 °F - 50.0 °F 82% 30.11 in 10.0 mi South 10.4 mph - N/A   Clear
2:35 AM 55.4 °F - 50.0 °F 82% 30.11 in 10.0 mi South 10.4 mph - N/A   Clear
2:55 AM 55.4 °F - 50.0 °F 82% 30.10 in 10.0 mi South 8.1 mph - N/A   Clear
3:15 AM 55.4 °F - 50.0 °F 82% 30.10 in 10.0 mi South 10.4 mph - N/A   Clear
3:35 AM 55.4 °F - 50.0 °F 82% 30.10 in 10.0 mi South 9.2 mph - N/A   Clear
3:55 AM 55.4 °F - 50.0 °F 82% 30.09 in 10.0 mi South 8.1 mph - N/A   Clear
4:15 AM 55.4 °F - 50.0 °F 82% 30.09 in 10.0 mi South 9.2 mph - N/A   Clear
4:35 AM 57.2 °F - 50.0 °F 77% 30.09 in 10.0 mi South 8.1 mph - N/A   Clear
4:55 AM 57.2 °F - 50.0 °F 77% 30.08 in 10.0 mi South 10.4 mph - N/A   Clear
5:15 AM 57.2 °F - 50.0 °F 77% 30.08 in 10.0 mi South 8.1 mph - N/A   Scattered Clouds
5:35 AM 57.2 °F - 50.0 °F 77% 30.08 in 10.0 mi South 8.1 mph - N/A   Mostly Cloudy
5:55 AM 55.4 °F - 50.0 °F 82% 30.08 in 10.0 mi South 6.9 mph - N/A   Mostly Cloudy
6:15 AM 55.4 °F - 50.0 °F 82% 30.08 in 10.0 mi SSE 6.9 mph - N/A   Mostly Cloudy
6:35 AM 55.4 °F - 50.0 °F 82% 30.07 in 10.0 mi SSE 9.2 mph - N/A   Mostly Cloudy
6:55 AM 53.6 °F - 50.0 °F 88% 30.07 in 10.0 mi SSE 9.2 mph - N/A   Clear
7:15 AM 53.6 °F - 48.2 °F 82% 30.07 in 10.0 mi SSE 8.1 mph - N/A   Clear
7:35 AM 57.2 °F - 50.0 °F 77% 30.07 in 10.0 mi South 8.1 mph - N/A   Clear
7:55 AM 59.0 °F - 51.8 °F 77% 30.07 in 10.0 mi SSE 9.2 mph - N/A   Clear
8:15 AM 62.6 °F - 55.4 °F 77% 30.06 in 10.0 mi South 10.4 mph - N/A   Clear
8:35 AM 64.4 °F - 57.2 °F 77% 30.05 in 10.0 mi South 11.5 mph - N/A   Clear
8:55 AM 66.2 °F - 57.2 °F 73% 30.05 in 10.0 mi South 10.4 mph - N/A   Clear
9:15 AM 66.2 °F - 55.4 °F 68% 30.05 in 10.0 mi South 15.0 mph 18.4 mph N/A   Clear
9:35 AM 68.0 °F - 55.4 °F 64% 30.04 in 10.0 mi South 11.5 mph 18.4 mph N/A   Clear
9:55 AM 68.0 °F - 57.2 °F 68% 30.04 in 10.0 mi SSE 13.8 mph - N/A   Clear
10:15 AM 71.6 °F - 59.0 °F 64% 30.04 in 10.0 mi South 13.8 mph - N/A   Clear
10:35 AM 73.4 °F - 57.2 °F 57% 30.03 in 10.0 mi SSE 12.7 mph 19.6 mph N/A   Clear
10:55 AM 73.4 °F - 57.2 °F 57% 30.03 in 10.0 mi South 13.8 mph - N/A   Clear
11:15 AM 75.2 °F - 59.0 °F 57% 30.02 in 10.0 mi South 16.1 mph 19.6 mph N/A   Clear
11:35 AM 75.2 °F - 60.8 °F 61% 30.02 in 10.0 mi South 16.1 mph - N/A   Clear
11:55 AM 77.0 °F - 64.4 °F 65% 30.01 in 10.0 mi South 16.1 mph 20.7 mph N/A   Clear
12:15 PM 77.0 °F - 64.4 °F 65% 30.00 in 10.0 mi South 12.7 mph 21.9 mph N/A   Clear
12:35 PM 77.0 °F - 64.4 °F 65% 30.00 in 10.0 mi South 17.3 mph 20.7 mph N/A   Clear
12:55 PM 78.8 °F - 64.4 °F 61% 29.99 in 10.0 mi South 17.3 mph 24.2 mph N/A   Clear
1:15 PM 78.8 °F - 66.2 °F 65% 29.99 in 10.0 mi SSE 15.0 mph 23.0 mph N/A   Clear
1:35 PM 78.8 °F - 66.2 °F 65% 29.98 in 10.0 mi South 16.1 mph 23.0 mph N/A   Clear
1:55 PM 77.0 °F - 66.2 °F 69% 29.97 in 10.0 mi South 15.0 mph 24.2 mph N/A   Partly Cloudy
2:15 PM 80.6 °F 82.7 °F 66.2 °F 61% 29.97 in 10.0 mi SSE 17.3 mph 23.0 mph N/A   Partly Cloudy
2:35 PM 80.6 °F 82.7 °F 66.2 °F 61% 29.96 in 10.0 mi SSE 18.4 mph - N/A   Clear
2:55 PM 80.6 °F 82.7 °F 66.2 °F 61% 29.95 in 10.0 mi South 17.3 mph 23.0 mph N/A   Partly Cloudy
3:15 PM 80.6 °F 83.2 °F 68.0 °F 65% 29.95 in 10.0 mi South 19.6 mph 25.3 mph N/A   Partly Cloudy
3:35 PM 80.6 °F 82.7 °F 66.2 °F 61% 29.94 in 10.0 mi SSE 15.0 mph - N/A   Clear
3:55 PM 82.4 °F 86.3 °F 69.8 °F 66% 29.93 in 10.0 mi SSE 16.1 mph 25.3 mph N/A   Clear
4:15 PM 82.4 °F 86.3 °F 69.8 °F 66% 29.93 in 10.0 mi South 16.1 mph 24.2 mph N/A   Clear
4:35 PM 82.4 °F 85.4 °F 68.0 °F 62% 29.92 in 10.0 mi SSW 13.8 mph 20.7 mph N/A   Clear
4:55 PM 80.6 °F 83.9 °F 69.8 °F 70% 29.92 in 10.0 mi South 18.4 mph 24.2 mph N/A   Clear
5:15 PM 80.6 °F 83.9 °F 69.8 °F 70% 29.92 in 10.0 mi SSE 15.0 mph 24.2 mph N/A   Clear
5:35 PM 80.6 °F 84.6 °F 71.6 °F 74% 29.91 in 10.0 mi South 12.7 mph 20.7 mph N/A   Partly Cloudy
5:55 PM 80.6 °F 84.6 °F 71.6 °F 74% 29.91 in 10.0 mi SSE 16.1 mph 19.6 mph N/A   Partly Cloudy
6:15 PM 78.8 °F - 71.6 °F 78% 29.90 in 10.0 mi South 17.3 mph 23.0 mph N/A   Clear
6:35 PM 78.8 °F - 71.6 °F 78% 29.90 in 10.0 mi South 13.8 mph 18.4 mph N/A   Partly Cloudy
6:55 PM 77.0 °F - 71.6 °F 83% 29.90 in 10.0 mi South 11.5 mph 16.1 mph N/A   Mostly Cloudy
7:15 PM 77.0 °F - 68.0 °F 74% 29.89 in 10.0 mi South 12.7 mph - N/A   Partly Cloudy
7:35 PM 77.0 °F - 68.0 °F 74% 29.89 in 10.0 mi South 11.5 mph - N/A   Partly Cloudy
7:55 PM 75.2 °F - 68.0 °F 78% 29.88 in 10.0 mi SSE 12.7 mph 17.3 mph N/A   Partly Cloudy
8:15 PM 75.2 °F - 68.0 °F 78% 29.88 in 10.0 mi SSE 11.5 mph - N/A   Partly Cloudy
8:35 PM 73.4 °F - 68.0 °F 83% 29.87 in 10.0 mi SSE 11.5 mph - N/A   Partly Cloudy
8:55 PM 73.4 °F - 68.0 °F 83% 29.88 in 10.0 mi SSE 11.5 mph - N/A   Clear
9:15 PM 71.6 °F - 64.4 °F 78% 29.88 in 10.0 mi SSE 10.4 mph - N/A   Scattered Clouds
9:35 PM 71.6 °F - 66.2 °F 83% 29.88 in 10.0 mi SSE 10.4 mph - N/A   Scattered Clouds
9:55 PM 71.6 °F - 66.2 °F 83% 29.89 in 10.0 mi SSE 10.4 mph - N/A   Clear
10:15 PM 71.6 °F - 66.2 °F 83% 29.89 in 10.0 mi SSE 9.2 mph - N/A   Clear
10:35 PM 71.6 °F - 66.2 °F 83% 29.88 in 10.0 mi SSE 11.5 mph - N/A   Clear
10:55 PM 71.6 °F - 64.4 °F 78% 29.88 in 10.0 mi SSE 12.7 mph - N/A   Clear
11:15 PM 71.6 °F - 66.2 °F 83% 29.86 in 10.0 mi SSE 13.8 mph 19.6 mph N/A   Clear
11:35 PM 71.6 °F - 66.2 °F 83% 29.86 in 10.0 mi SSE 13.8 mph 19.6 mph N/A   Clear
11:55 PM 71.6 °F - 66.2 °F 83% 29.87 in 10.0 mi SSE 13.8 mph 18.4 mph N/A   Clear